Time,TemperatureF,DewpointF,PressureIn,WindDirection,WindDirectionDegrees,WindSpeedMPH,WindSpeedGustMPH,Humidity,HourlyPrecipIn,Conditions,Clouds,dailyrainin,SolarRadiationWatts/m^2,SoftwareType,DateUTC
2013-05-18 00:02:00,56.0,56.0,-100.00,NE,43,2.0,7.0,99,0.00,,,0.21,0.000000,,2013-05-18 06:02:00,
2013-05-18 00:11:00,56.0,56.0,-100.00,NE,43,2.0,7.0,99,0.00,,,0.21,0.000000,,2013-05-18 06:11:00,
2013-05-18 00:22:00,56.0,56.0,-100.00,NE,43,2.0,7.0,99,0.00,,,0.21,0.000000,,2013-05-18 06:22:00,
2013-05-18 00:52:00,54.0,54.0,-100.00,SSW,206,1.0,6.0,99,0.00,,,0.21,0.000000,,2013-05-18 06:52:00,
2013-05-18 01:01:00,54.0,54.0,-100.00,SSW,206,1.0,6.0,99,0.00,,,0.21,0.000000,,2013-05-18 07:01:00,
2013-05-18 01:12:00,54.0,54.0,-100.00,SSW,206,1.0,6.0,99,0.00,,,0.21,0.000000,,2013-05-18 07:12:00,
2013-05-18 01:21:00,54.0,54.0,-100.00,SSW,206,1.0,6.0,99,0.00,,,0.21,0.000000,,2013-05-18 07:21:00,
2013-05-18 01:52:00,56.0,56.0,-100.00,NW,308,4.0,6.0,99,0.00,,,0.21,0.000000,,2013-05-18 07:52:00,
2013-05-18 02:01:00,56.0,56.0,-100.00,NW,308,4.0,6.0,99,0.00,,,0.21,0.000000,,2013-05-18 08:01:00,
2013-05-18 02:11:00,56.0,56.0,-100.00,NW,308,4.0,6.0,99,0.00,,,0.21,0.000000,,2013-05-18 08:11:00,
2013-05-18 02:21:00,56.0,56.0,-100.00,NW,308,4.0,6.0,99,0.00,,,0.21,0.000000,,2013-05-18 08:21:00,
2013-05-18 02:52:00,55.0,55.0,-100.00,East,90,1.0,7.0,99,0.00,,,0.21,0.000000,,2013-05-18 08:52:00,
2013-05-18 03:02:00,55.0,55.0,-100.00,East,90,1.0,7.0,99,0.00,,,0.21,0.000000,,2013-05-18 09:02:00,
2013-05-18 03:11:00,55.0,55.0,-100.00,East,90,1.0,7.0,99,0.00,,,0.21,0.000000,,2013-05-18 09:11:00,
2013-05-18 03:22:00,55.0,55.0,-100.00,East,90,1.0,7.0,99,0.00,,,0.21,0.000000,,2013-05-18 09:22:00,
2013-05-18 03:53:00,52.0,52.0,-100.00,SSW,213,1.0,5.0,99,0.00,,,0.21,0.000000,,2013-05-18 09:53:00,
2013-05-18 04:03:00,52.0,52.0,-100.00,SSW,213,1.0,5.0,99,0.00,,,0.21,0.000000,,2013-05-18 10:03:00,
2013-05-18 04:12:00,52.0,52.0,-100.00,SSW,213,1.0,5.0,99,0.00,,,0.21,0.000000,,2013-05-18 10:12:00,
2013-05-18 04:22:00,52.0,52.0,-100.00,SSW,213,1.0,5.0,99,0.00,,,0.21,0.000000,,2013-05-18 10:22:00,
2013-05-18 04:53:00,51.0,51.0,-100.00,West,261,2.0,4.0,99,0.00,,,0.21,0.000000,,2013-05-18 10:53:00,
2013-05-18 05:03:00,51.0,51.0,-100.00,West,261,2.0,4.0,99,0.00,,,0.21,0.000000,,2013-05-18 11:03:00,
2013-05-18 05:12:00,51.0,51.0,-100.00,West,261,2.0,4.0,99,0.00,,,0.21,0.000000,,2013-05-18 11:12:00,
2013-05-18 05:22:00,51.0,51.0,-100.00,West,261,2.0,4.0,99,0.00,,,0.21,0.000000,,2013-05-18 11:22:00,
2013-05-18 05:52:00,52.0,52.0,-100.00,WSW,240,1.0,4.0,99,0.00,,,0.21,0.000000,,2013-05-18 11:52:00,
2013-05-18 06:02:00,52.0,52.0,-100.00,WSW,240,1.0,4.0,99,0.00,,,0.21,0.000000,,2013-05-18 12:02:00,
2013-05-18 06:12:00,52.0,52.0,-100.00,WSW,240,1.0,4.0,99,0.00,,,0.21,0.000000,,2013-05-18 12:12:00,
2013-05-18 06:23:00,52.0,52.0,-100.00,WSW,240,1.0,4.0,99,0.00,,,0.21,0.000000,,2013-05-18 12:23:00,
2013-05-18 06:42:00,54.0,54.0,-100.00,SSW,200,1.0,3.0,99,0.00,,,0.21,6.000000,,2013-05-18 12:42:00,
2013-05-18 06:52:00,54.0,54.0,-100.00,SSW,200,1.0,3.0,99,0.00,,,0.21,6.000000,,2013-05-18 12:52:00,
2013-05-18 07:01:00,54.0,54.0,-100.00,SSW,200,1.0,3.0,99,0.00,,,0.21,6.000000,,2013-05-18 13:01:00,
2013-05-18 07:11:00,54.0,54.0,-100.00,SSW,200,1.0,3.0,99,0.00,,,0.21,6.000000,,2013-05-18 13:11:00,
2013-05-18 07:21:00,54.0,54.0,-100.00,SSW,200,1.0,3.0,99,0.00,,,0.21,6.000000,,2013-05-18 13:21:00,
2013-05-18 07:53:00,56.0,56.0,-100.00,NNE,13,1.0,3.0,99,0.00,,,0.21,59.000000,,2013-05-18 13:53:00,
2013-05-18 08:03:00,56.0,56.0,-100.00,NNE,13,1.0,3.0,99,0.00,,,0.21,59.000000,,2013-05-18 14:03:00,
2013-05-18 08:12:00,56.0,56.0,-100.00,NNE,13,1.0,3.0,99,0.00,,,0.21,59.000000,,2013-05-18 14:12:00,
2013-05-18 08:22:00,56.0,56.0,-100.00,NNE,13,1.0,3.0,99,0.00,,,0.21,59.000000,,2013-05-18 14:22:00,
2013-05-18 08:54:00,63.0,59.0,-100.00,North,351,2.0,5.0,87,0.00,,,0.21,342.000000,,2013-05-18 14:54:00,
2013-05-18 09:03:00,63.0,59.0,-100.00,North,351,2.0,5.0,87,0.00,,,0.21,342.000000,,2013-05-18 15:03:00,
2013-05-18 09:13:00,63.0,59.0,-100.00,North,351,2.0,5.0,87,0.00,,,0.21,342.000000,,2013-05-18 15:13:00,
2013-05-18 09:23:00,63.0,59.0,-100.00,North,351,2.0,5.0,87,0.00,,,0.21,342.000000,,2013-05-18 15:23:00,
2013-05-18 09:43:00,66.0,59.0,-100.00,NNE,13,3.0,7.0,77,0.00,,,0.21,527.000000,,2013-05-18 15:43:00,
2013-05-18 09:53:00,66.0,59.0,-100.00,NNE,13,3.0,7.0,77,0.00,,,0.21,527.000000,,2013-05-18 15:53:00,
2013-05-18 10:03:00,66.0,59.0,-100.00,NNE,13,3.0,7.0,77,0.00,,,0.21,527.000000,,2013-05-18 16:03:00,
2013-05-18 10:13:00,66.0,59.0,-100.00,NNE,13,3.0,7.0,77,0.00,,,0.21,527.000000,,2013-05-18 16:13:00,
2013-05-18 10:22:00,66.0,59.0,-100.00,NNE,13,3.0,7.0,77,0.00,,,0.21,527.000000,,2013-05-18 16:22:00,
2013-05-18 10:52:00,68.0,59.0,-100.00,NW,318,3.0,7.0,73,0.00,,,0.21,442.000000,,2013-05-18 16:52:00,
2013-05-18 11:02:00,68.0,59.0,-100.00,NW,318,3.0,7.0,73,0.00,,,0.21,442.000000,,2013-05-18 17:02:00,
2013-05-18 11:12:00,68.0,59.0,-100.00,NW,318,3.0,7.0,73,0.00,,,0.21,442.000000,,2013-05-18 17:12:00,
2013-05-18 11:22:00,68.0,59.0,-100.00,NW,318,3.0,7.0,73,0.00,,,0.21,442.000000,,2013-05-18 17:22:00,
2013-05-18 11:42:00,73.0,59.0,-100.00,NNE,25,2.0,7.0,62,0.00,,,0.21,706.000000,,2013-05-18 17:42:00,
2013-05-18 11:52:00,73.0,59.0,-100.00,NNE,25,2.0,7.0,62,0.00,,,0.21,706.000000,,2013-05-18 17:52:00,
2013-05-18 12:01:00,73.0,59.0,-100.00,NNE,25,2.0,7.0,62,0.00,,,0.21,706.000000,,2013-05-18 18:01:00,
2013-05-18 12:12:00,73.0,59.0,-100.00,NNE,25,2.0,7.0,62,0.00,,,0.21,706.000000,,2013-05-18 18:12:00,
2013-05-18 12:21:00,73.0,59.0,-100.00,NNE,25,2.0,7.0,62,0.00,,,0.21,706.000000,,2013-05-18 18:21:00,
2013-05-18 12:42:00,74.0,55.0,-100.00,NNE,20,3.0,7.0,51,0.00,,,0.21,714.000000,,2013-05-18 18:42:00,
2013-05-18 12:52:00,74.0,55.0,-100.00,NNE,20,3.0,7.0,51,0.00,,,0.21,714.000000,,2013-05-18 18:52:00,
2013-05-18 13:02:00,74.0,55.0,-100.00,NNE,20,3.0,7.0,51,0.00,,,0.21,714.000000,,2013-05-18 19:02:00,
2013-05-18 13:12:00,74.0,55.0,-100.00,NNE,20,3.0,7.0,51,0.00,,,0.21,714.000000,,2013-05-18 19:12:00,
2013-05-18 13:22:00,74.0,55.0,-100.00,NNE,20,3.0,7.0,51,0.00,,,0.21,714.000000,,2013-05-18 19:22:00,
2013-05-18 13:52:00,72.0,56.0,-100.00,NW,322,3.0,8.0,57,0.00,,,0.21,672.000000,,2013-05-18 19:52:00,
2013-05-18 14:02:00,72.0,56.0,-100.00,NW,322,3.0,8.0,57,0.00,,,0.21,672.000000,,2013-05-18 20:02:00,
2013-05-18 14:11:00,72.0,56.0,-100.00,NW,322,3.0,8.0,57,0.00,,,0.21,672.000000,,2013-05-18 20:11:00,
2013-05-18 14:22:00,72.0,56.0,-100.00,NW,322,3.0,8.0,57,0.00,,,0.21,672.000000,,2013-05-18 20:22:00,
2013-05-18 14:52:00,78.0,53.0,-100.00,NNW,343,4.0,11.0,42,0.00,,,0.21,1085.000000,,2013-05-18 20:52:00,
2013-05-18 15:01:00,78.0,53.0,-100.00,NNW,343,4.0,11.0,42,0.00,,,0.21,1085.000000,,2013-05-18 21:01:00,
2013-05-18 15:12:00,78.0,53.0,-100.00,NNW,343,4.0,11.0,42,0.00,,,0.21,1085.000000,,2013-05-18 21:12:00,
2013-05-18 15:21:00,78.0,53.0,-100.00,NNW,343,4.0,11.0,42,0.00,,,0.21,1085.000000,,2013-05-18 21:21:00,
2013-05-18 15:53:00,77.0,51.0,-100.00,North,6,2.0,13.0,41,0.00,,,0.21,669.000000,,2013-05-18 21:53:00,
2013-05-18 16:03:00,77.0,51.0,-100.00,North,6,2.0,13.0,41,0.00,,,0.21,669.000000,,2013-05-18 22:03:00,
2013-05-18 16:12:00,77.0,51.0,-100.00,North,6,2.0,13.0,41,0.00,,,0.21,669.000000,,2013-05-18 22:12:00,
2013-05-18 16:23:00,77.0,51.0,-100.00,North,6,2.0,13.0,41,0.00,,,0.21,669.000000,,2013-05-18 22:23:00,
2013-05-18 16:53:00,73.0,51.0,-100.00,NE,43,6.0,13.0,46,0.00,,,0.21,485.000000,,2013-05-18 22:53:00,
2013-05-18 17:01:00,73.0,51.0,-100.00,NE,43,6.0,13.0,46,0.00,,,0.21,485.000000,,2013-05-18 23:01:00,
2013-05-18 17:12:00,73.0,51.0,-100.00,NE,43,6.0,13.0,46,0.00,,,0.21,485.000000,,2013-05-18 23:12:00,
2013-05-18 17:22:00,73.0,51.0,-100.00,NE,43,6.0,13.0,46,0.00,,,0.21,485.000000,,2013-05-18 23:22:00,
2013-05-18 17:42:00,74.0,53.0,-100.00,NE,42,7.0,13.0,48,0.00,,,0.21,401.000000,,2013-05-18 23:42:00,
2013-05-18 17:53:00,74.0,53.0,-100.00,NE,42,7.0,13.0,48,0.00,,,0.21,401.000000,,2013-05-18 23:53:00,
2013-05-18 18:01:00,74.0,53.0,-100.00,NE,42,7.0,13.0,48,0.00,,,0.21,401.000000,,2013-05-19 00:01:00,
2013-05-18 18:11:00,74.0,53.0,-100.00,NE,42,7.0,13.0,48,0.00,,,0.21,401.000000,,2013-05-19 00:11:00,
2013-05-18 18:21:00,74.0,53.0,-100.00,NE,42,7.0,13.0,48,0.00,,,0.21,401.000000,,2013-05-19 00:21:00,
2013-05-18 18:42:00,66.0,56.0,-100.00,NNW,346,6.0,14.0,71,0.01,,,0.22,120.000000,,2013-05-19 00:42:00,
2013-05-18 18:52:00,66.0,56.0,-100.00,NNW,346,6.0,14.0,71,0.01,,,0.22,120.000000,,2013-05-19 00:52:00,
2013-05-18 19:01:00,66.0,56.0,-100.00,NNW,346,6.0,14.0,71,0.01,,,0.22,120.000000,,2013-05-19 01:01:00,
2013-05-18 19:11:00,66.0,56.0,-100.00,NNW,346,6.0,14.0,71,0.01,,,0.22,120.000000,,2013-05-19 01:11:00,
2013-05-18 19:21:00,66.0,56.0,-100.00,NNW,346,6.0,14.0,71,0.01,,,0.22,120.000000,,2013-05-19 01:21:00,
2013-05-18 19:42:00,61.0,51.0,-100.00,NNW,340,7.0,20.0,69,0.00,,,0.22,13.000000,,2013-05-19 01:42:00,
2013-05-18 19:52:00,61.0,51.0,-100.00,NNW,340,7.0,20.0,69,0.00,,,0.22,13.000000,,2013-05-19 01:52:00,
2013-05-18 20:01:00,61.0,51.0,-100.00,NNW,340,7.0,20.0,69,0.00,,,0.22,13.000000,,2013-05-19 02:01:00,
2013-05-18 20:11:00,61.0,51.0,-100.00,NNW,340,7.0,20.0,69,0.00,,,0.22,13.000000,,2013-05-19 02:11:00,
2013-05-18 20:21:00,61.0,51.0,-100.00,NNW,340,7.0,20.0,69,0.00,,,0.22,13.000000,,2013-05-19 02:21:00,
2013-05-18 20:52:00,58.0,56.0,-100.00,North,352,4.0,20.0,92,0.07,,,0.29,8.000000,,2013-05-19 02:52:00,
2013-05-18 21:01:00,58.0,56.0,-100.00,North,352,4.0,20.0,92,0.07,,,0.29,8.000000,,2013-05-19 03:01:00,
2013-05-18 21:11:00,58.0,56.0,-100.00,North,352,4.0,20.0,92,0.07,,,0.29,8.000000,,2013-05-19 03:11:00,
2013-05-18 21:22:00,58.0,56.0,-100.00,North,352,4.0,20.0,92,0.07,,,0.29,8.000000,,2013-05-19 03:22:00,
2013-05-18 21:53:00,57.0,57.0,-100.00,West,260,3.0,11.0,99,0.04,,,-99.99,0.000000,,2013-05-19 03:53:00,
2013-05-18 22:02:00,57.0,57.0,-100.00,West,260,3.0,11.0,99,0.04,,,-99.99,0.000000,,2013-05-19 04:02:00,
2013-05-18 22:12:00,57.0,57.0,-100.00,West,260,3.0,11.0,99,0.04,,,-99.99,0.000000,,2013-05-19 04:12:00,
2013-05-18 22:23:00,57.0,57.0,-100.00,West,260,3.0,11.0,99,0.04,,,-99.99,0.000000,,2013-05-19 04:23:00,
2013-05-18 22:53:00,57.0,57.0,-100.00,NW,321,4.0,10.0,99,0.06,,,0.18,0.000000,,2013-05-19 04:53:00,
2013-05-18 23:02:00,57.0,57.0,-100.00,NW,321,4.0,10.0,99,0.06,,,0.18,0.000000,,2013-05-19 05:02:00,
2013-05-18 23:12:00,57.0,57.0,-100.00,NW,321,4.0,10.0,99,0.06,,,0.18,0.000000,,2013-05-19 05:12:00,
2013-05-18 23:22:00,57.0,57.0,-100.00,NW,321,4.0,10.0,99,0.06,,,0.18,0.000000,,2013-05-19 05:22:00,
2013-05-18 23:42:00,55.0,55.0,-100.00,North,4,5.0,11.0,99,0.10,,,0.28,0.000000,,2013-05-19 05:42:00,
2013-05-18 23:52:00,55.0,55.0,-100.00,North,4,5.0,11.0,99,0.10,,,0.28,0.000000,,2013-05-19 05:52:00,